| time (UTC) | temp C | wind direction | speed KPH | gust KPH | rain 1hr cm | rain 24hr cm | rain mn cm | humidity % | barometer mb |
| 20260507170051 | 9 | 295 | 6.4 | 12.9 | 0.00 | 0.00 | 0.00 | 59 | 1018.2 |
| 20260507165550 | 9 | 257 | 6.4 | 12.9 | 0.00 | 0.00 | 0.00 | 59 | 1018.2 |
| 20260507165053 | 9 | 292 | 4.8 | 11.3 | 0.00 | 0.00 | 0.00 | 59 | 1018.2 |
| 20260507164548 | 9 | 281 | 4.8 | 11.3 | 0.00 | 0.00 | 0.00 | 58 | 1018.3 |
| 20260507164048 | 9 | 288 | 4.8 | 14.5 | 0.00 | 0.00 | 0.00 | 57 | 1018.3 |
| 20260507163549 | 9 | 273 | 4.8 | 12.9 | 0.00 | 0.00 | 0.00 | 57 | 1018.4 |
| 20260507163046 | 9 | 265 | 6.4 | 16.1 | 0.00 | 0.00 | 0.00 | 57 | 1018.4 |
| 20260507162546 | 10 | 298 | 6.4 | 16.1 | 0.00 | 0.00 | 0.00 | 57 | 1018.3 |
| 20260507162044 | 10 | 243 | 6.4 | 12.9 | 0.00 | 0.00 | 0.00 | 56 | 1018.4 |
| 20260507161543 | 10 | 254 | 4.8 | 11.3 | 0.00 | 0.00 | 0.00 | 56 | 1018.4 |
| 20260507161042 | 10 | 289 | 4.8 | 17.7 | 0.00 | 0.00 | 0.00 | 55 | 1018.3 |
| 20260507160541 | 10 | 282 | 4.8 | 17.7 | 0.00 | 0.00 | 0.00 | 56 | 1018.4 |
| 20260507160041 | 10 | 256 | 4.8 | 16.1 | 0.00 | 0.00 | 0.00 | 56 | 1018.4 |
| 20260507155539 | 10 | 251 | 6.4 | 14.5 | 0.00 | 0.00 | 0.00 | 55 | 1018.5 |
| 20260507155039 | 10 | 240 | 6.4 | 14.5 | 0.00 | 0.00 | 0.00 | 55 | 1018.5 |
| 20260507154538 | 10 | 217 | 4.8 | 14.5 | 0.00 | 0.00 | 0.00 | 55 | 1018.5 |
| 20260507154038 | 10 | 214 | 3.2 | 17.7 | 0.00 | 0.00 | 0.00 | 54 | 1018.5 |
| 20260507153537 | 10 | 247 | 4.8 | 17.7 | 0.00 | 0.00 | 0.00 | 54 | 1018.6 |
| 20260507153037 | 10 | 201 | 6.4 | 20.9 | 0.00 | 0.00 | 0.00 | 54 | 1018.6 |
| 20260507152536 | 10 | 236 | 6.4 | 16.1 | 0.00 | 0.00 | 0.00 | 54 | 1018.7 |
| 20260507152036 | 10 | 222 | 4.8 | 12.9 | 0.00 | 0.00 | 0.00 | 54 | 1018.7 |
| 20260507151534 | 10 | 214 | 6.4 | 14.5 | 0.00 | 0.00 | 0.00 | 54 | 1018.6 |
| 20260507151033 | 10 | 200 | 4.8 | 14.5 | 0.00 | 0.00 | 0.00 | 54 | 1018.7 |
| 20260507150533 | 11 | 146 | 4.8 | 17.7 | 0.00 | 0.00 | 0.00 | 53 | 1018.7 |
| 20260507150032 | 11 | 253 | 6.4 | 17.7 | 0.00 | 0.00 | 0.00 | 53 | 1018.7 |
| 20260507145532 | 11 | 260 | 6.4 | 14.5 | 0.00 | 0.00 | 0.00 | 53 | 1018.8 |
| 20260507145031 | 11 | 211 | 4.8 | 16.1 | 0.00 | 0.00 | 0.00 | 52 | 1018.8 |
| 20260507144534 | 11 | 277 | 6.4 | 17.7 | 0.00 | 0.00 | 0.00 | 52 | 1018.7 |
| 20260507144031 | 11 | 201 | 4.8 | 17.7 | 0.00 | 0.00 | 0.00 | 52 | 1018.8 |
| 20260507143529 | 11 | 204 | 3.2 | 19.3 | 0.00 | 0.00 | 0.00 | 53 | 1018.8 |
| 20260507143032 | 11 | 227 | 8.0 | 19.3 | 0.00 | 0.00 | 0.00 | 53 | 1018.8 |
| 20260507142529 | 11 | 267 | 4.8 | 12.9 | 0.00 | 0.00 | 0.00 | 53 | 1018.7 |
| 20260507142028 | 11 | 197 | 3.2 | 17.7 | 0.00 | 0.00 | 0.00 | 52 | 1018.8 |
| 20260507141528 | 11 | 242 | 6.4 | 17.7 | 0.00 | 0.00 | 0.00 | 52 | 1018.8 |
| 20260507141026 | 11 | 227 | 6.4 | 16.1 | 0.00 | 0.00 | 0.00 | 52 | 1018.8 |
| 20260507140525 | 11 | 260 | 6.4 | 16.1 | 0.00 | 0.00 | 0.00 | 52 | 1018.7 |
| 20260507140028 | 11 | 212 | 6.4 | 12.9 | 0.00 | 0.00 | 0.00 | 52 | 1018.8 |
| 20260507135523 | 11 | 294 | 4.8 | 22.5 | 0.00 | 0.00 | 0.00 | 52 | 1018.7 |
| 20260507135023 | 11 | 227 | 4.8 | 22.5 | 0.00 | 0.00 | 0.00 | 52 | 1018.7 |
| 20260507134525 | 11 | 186 | 9.7 | 22.5 | 0.00 | 0.00 | 0.00 | 51 | 1018.7 |
| 20260507134025 | 11 | 269 | 4.8 | 17.7 | 0.00 | 0.00 | 0.00 | 52 | 1018.7 |
| 20260507133525 | 11 | 186 | 6.4 | 22.5 | 0.00 | 0.00 | 0.00 | 52 | 1018.6 |
| 20260507133022 | 11 | 238 | 8.0 | 16.1 | 0.00 | 0.00 | 0.00 | 53 | 1018.6 |
| 20260507132520 | 11 | 230 | 4.8 | 16.1 | 0.00 | 0.00 | 0.00 | 52 | 1018.6 |
| 20260507132022 | 11 | 214 | 6.4 | 19.3 | 0.00 | 0.00 | 0.00 | 52 | 1018.7 |
| 20260507131527 | 11 | 215 | 6.4 | 20.9 | 0.00 | 0.00 | 0.00 | 51 | 1018.7 |
| 20260507131019 | 11 | 195 | 8.0 | 19.3 | 0.00 | 0.00 | 0.00 | 52 | 1018.8 |
| 20260507130518 | 11 | 253 | 3.2 | 19.3 | 0.00 | 0.00 | 0.00 | 52 | 1018.7 |
| 20260507130017 | 11 | 219 | 6.4 | 14.5 | 0.00 | 0.00 | 0.00 | 52 | 1018.6 |
| 20260507125517 | 11 | 241 | 4.8 | 19.3 | 0.00 | 0.00 | 0.00 | 52 | 1018.7 |
| 20260507125016 | 11 | 125 | 4.8 | 19.3 | 0.00 | 0.00 | 0.00 | 52 | 1018.5 |
| 20260507124518 | 11 | 217 | 3.2 | 12.9 | 0.00 | 0.00 | 0.00 | 52 | 1018.5 |
| 20260507124019 | 11 | 194 | 6.4 | 14.5 | 0.00 | 0.00 | 0.00 | 52 | 1018.5 |
| 20260507123519 | 11 | 172 | 6.4 | 16.1 | 0.00 | 0.00 | 0.00 | 51 | 1018.5 |
| 20260507123022 | 11 | 240 | 6.4 | 19.3 | 0.00 | 0.00 | 0.00 | 52 | 1018.6 |
| 20260507122517 | 11 | 221 | 4.8 | 29.0 | 0.00 | 0.00 | 0.00 | 51 | 1018.7 |
| 20260507122013 | 11 | 211 | 6.4 | 14.5 | 0.00 | 0.00 | 0.00 | 51 | 1018.7 |
| 20260507121513 | 11 | 246 | 6.4 | 16.1 | 0.00 | 0.00 | 0.00 | 51 | 1018.7 |
| 20260507121012 | 11 | 161 | 3.2 | 16.1 | 0.00 | 0.00 | 0.00 | 51 | 1018.8 |
| 20260507120511 | 11 | 215 | 6.4 | 32.2 | 0.00 | 0.00 | 0.00 | 50 | 1018.8 |
| 20260507120010 | 11 | 171 | 6.4 | 32.2 | 0.00 | 0.00 | 0.00 | 51 | 1019.0 |
| 20260507115513 | 11 | 194 | 8.0 | 24.1 | 0.00 | 0.00 | 0.00 | 50 | 1019.0 |
| 20260507115009 | 11 | 185 | 6.4 | 16.1 | 0.00 | 0.00 | 0.00 | 50 | 1019.0 |
| 20260507114509 | 11 | 197 | 6.4 | 17.7 | 0.00 | 0.00 | 0.00 | 50 | 1018.9 |
| 20260507114007 | 11 | 231 | 6.4 | 17.7 | 0.00 | 0.00 | 0.00 | 50 | 1018.9 |
| 20260507113507 | 11 | 270 | 6.4 | 24.1 | 0.00 | 0.00 | 0.00 | 50 | 1018.9 |
| 20260507113006 | 11 | 222 | 4.8 | 24.1 | 0.00 | 0.00 | 0.00 | 49 | 1018.9 |
| 20260507112506 | 11 | 225 | 8.0 | 20.9 | 0.00 | 0.00 | 0.00 | 50 | 1018.9 |
| 20260507112005 | 11 | 193 | 4.8 | 22.5 | 0.00 | 0.00 | 0.00 | 49 | 1018.7 |
| 20260507111506 | 11 | 262 | 6.4 | 22.5 | 0.00 | 0.00 | 0.00 | 49 | 1018.7 |
| 20260507111105 | 11 | 252 | 6.4 | 17.7 | 0.00 | 0.00 | 0.00 | 49 | 1018.5 |
| 20260507110502 | 11 | 178 | 6.4 | 32.2 | 0.00 | 0.00 | 0.00 | 48 | 1018.5 |
| 20260507110008 | 11 | 296 | 6.4 | 20.9 | 0.00 | 0.00 | 0.00 | 48 | 1018.5 |
| 20260507105609 | 12 | 236 | 6.4 | 22.5 | 0.00 | 0.00 | 0.00 | 48 | 1018.5 |
| 20260507105001 | 12 | 237 | 9.7 | 22.5 | 0.00 | 0.00 | 0.00 | 48 | 1018.4 |
| 20260507104600 | 12 | 243 | 8.0 | 19.3 | 0.00 | 0.00 | 0.00 | 48 | 1018.4 |
| 20260507104100 | 12 | 239 | 6.4 | 22.5 | 0.00 | 0.00 | 0.00 | 47 | 1018.4 |
| 20260507103600 | 12 | 265 | 9.7 | 22.5 | 0.00 | 0.00 | 0.00 | 46 | 1018.3 |
| 20260507103059 | 12 | 266 | 9.7 | 22.5 | 0.00 | 0.00 | 0.00 | 46 | 1018.3 |
| 20260507102558 | 12 | 259 | 8.0 | 22.5 | 0.00 | 0.00 | 0.00 | 47 | 1018.4 |
| 20260507102058 | 12 | 242 | 6.4 | 20.9 | 0.00 | 0.00 | 0.00 | 47 | 1018.4 |
| 20260507101607 | 12 | 290 | 9.7 | 29.0 | 0.00 | 0.00 | 0.00 | 46 | 1018.5 |
| 20260507101056 | 12 | 224 | 8.0 | 29.0 | 0.00 | 0.00 | 0.00 | 46 | 1018.5 |
| 20260507100559 | 12 | 237 | 4.8 | 22.5 | 0.00 | 0.00 | 0.00 | 46 | 1018.4 |
| 20260507100058 | 12 | 239 | 8.0 | 17.7 | 0.00 | 0.00 | 0.00 | 46 | 1018.4 |
| 20260507095558 | 12 | 212 | 6.4 | 16.1 | 0.00 | 0.00 | 0.00 | 46 | 1018.4 |
| 20260507095055 | 12 | 244 | 6.4 | 16.1 | 0.00 | 0.00 | 0.00 | 46 | 1018.3 |
| 20260507094600 | 12 | 294 | 6.4 | 17.7 | 0.00 | 0.00 | 0.00 | 46 | 1018.3 |
| 20260507094057 | 12 | 184 | 6.4 | 20.9 | 0.00 | 0.00 | 0.00 | 46 | 1018.2 |
| 20260507093552 | 12 | 227 | 8.0 | 20.9 | 0.00 | 0.00 | 0.00 | 46 | 1018.0 |
| 20260507093052 | 12 | 211 | 8.0 | 19.3 | 0.00 | 0.00 | 0.00 | 45 | 1017.9 |
| 20260507092551 | 12 | 242 | 6.4 | 22.5 | 0.00 | 0.00 | 0.00 | 44 | 1017.9 |
| 20260507092050 | 12 | 236 | 6.4 | 24.1 | 0.00 | 0.00 | 0.00 | 45 | 1017.8 |
| 20260507091600 | 12 | 274 | 8.0 | 24.1 | 0.00 | 0.00 | 0.00 | 45 | 1017.6 |
| 20260507091049 | 13 | 277 | 9.7 | 29.0 | 0.00 | 0.00 | 0.00 | 45 | 1017.6 |
| 20260507090549 | 13 | 184 | 11.3 | 37.0 | 0.00 | 0.00 | 0.00 | 44 | 1017.6 |
| 20260507090108 | 13 | 250 | 9.7 | 37.0 | 0.00 | 0.00 | 0.00 | 44 | 1017.6 |
| 20260507085549 | 13 | 217 | 14.5 | 37.0 | 0.00 | 0.00 | 0.00 | 45 | 1017.4 |
| 20260507085048 | 13 | 250 | 8.0 | 27.4 | 0.00 | 0.00 | 0.00 | 44 | 1017.4 |
| 20260507084547 | 13 | 257 | 6.4 | 27.4 | 0.00 | 0.00 | 0.00 | 44 | 1017.4 |
| 20260507084046 | 13 | 216 | 6.4 | 27.4 | 0.00 | 0.00 | 0.00 | 44 | 1017.4 |
| 20260507083546 | 13 | 254 | 8.0 | 24.1 | 0.00 | 0.00 | 0.00 | 43 | 1017.3 |
| 20260507083045 | 13 | 223 | 6.4 | 19.3 | 0.00 | 0.00 | 0.00 | 44 | 1017.3 |
| 20260507082547 | 13 | 246 | 4.8 | 20.9 | 0.00 | 0.00 | 0.00 | 43 | 1017.1 |
| 20260507082043 | 13 | 267 | 4.8 | 20.9 | 0.00 | 0.00 | 0.00 | 43 | 1017.0 |
| 20260507081552 | 13 | 205 | 8.0 | 17.7 | 0.00 | 0.00 | 0.00 | 43 | 1016.9 |
| 20260507081041 | 13 | 210 | 4.8 | 11.3 | 0.00 | 0.00 | 0.00 | 43 | 1016.9 |
| 20260507080540 | 13 | 226 | 4.8 | 16.1 | 0.00 | 0.00 | 0.00 | 43 | 1016.7 |
| 20260507080039 | 13 | 229 | 3.2 | 12.9 | 0.00 | 0.00 | 0.00 | 42 | 1016.5 |
| 20260507075541 | 13 | 221 | 3.2 | 19.3 | 0.00 | 0.00 | 0.00 | 43 | 1016.4 |
| 20260507075037 | 13 | 195 | 8.0 | 22.5 | 0.00 | 0.00 | 0.00 | 41 | 1016.2 |
| 20260507074540 | 13 | 198 | 8.0 | 22.5 | 0.00 | 0.00 | 0.00 | 42 | 1016.2 |
| 20260507074035 | 13 | 216 | 8.0 | 20.9 | 0.00 | 0.00 | 0.00 | 41 | 1016.1 |
| 20260507073535 | 13 | 275 | 8.0 | 20.9 | 0.00 | 0.00 | 0.00 | 41 | 1016.0 |
| 20260507073044 | 13 | 227 | 6.4 | 19.3 | 0.00 | 0.00 | 0.00 | 40 | 1016.0 |
| 20260507072534 | 14 | 249 | 6.4 | 24.1 | 0.00 | 0.00 | 0.00 | 41 | 1015.8 |
| 20260507072034 | 14 | 198 | 6.4 | 24.1 | 0.00 | 0.00 | 0.00 | 40 | 1015.7 |
| 20260507071531 | 14 | 213 | 9.7 | 24.1 | 0.00 | 0.00 | 0.00 | 39 | 1015.6 |
| 20260507071031 | 14 | 274 | 8.0 | 24.1 | 0.00 | 0.00 | 0.00 | 39 | 1015.5 |
| 20260507070531 | 15 | 193 | 6.4 | 17.7 | 0.00 | 0.00 | 0.00 | 39 | 1015.5 |
| 20260507070031 | 15 | 300 | 6.4 | 32.2 | 0.00 | 0.00 | 0.00 | 38 | 1015.4 |
| 20260507065534 | 15 | 181 | 11.3 | 32.2 | 0.00 | 0.00 | 0.00 | 37 | 1015.4 |
| 20260507065030 | 15 | 257 | 11.3 | 32.2 | 0.00 | 0.00 | 0.00 | 36 | 1015.3 |
| 20260507064530 | 15 | 216 | 8.0 | 19.3 | 0.00 | 0.00 | 0.00 | 37 | 1015.3 |
| 20260507064029 | 15 | 184 | 9.7 | 22.5 | 0.00 | 0.00 | 0.00 | 36 | 1015.4 |
| 20260507063529 | 15 | 229 | 9.7 | 22.5 | 0.00 | 0.00 | 0.00 | 36 | 1015.2 |
| 20260507063028 | 15 | 267 | 8.0 | 22.5 | 0.00 | 0.00 | 0.00 | 35 | 1015.1 |
| 20260507062528 | 15 | 157 | 6.4 | 24.1 | 0.00 | 0.00 | 0.00 | 36 | 1015.1 |
| 20260507062028 | 16 | 229 | 11.3 | 24.1 | 0.00 | 0.00 | 0.00 | 34 | 1015.0 |
| 20260507061532 | 16 | 212 | 9.7 | 27.4 | 0.00 | 0.00 | 0.00 | 34 | 1014.8 |
| 20260507061025 | 16 | 169 | 8.0 | 27.4 | 0.00 | 0.00 | 0.00 | 33 | 1014.8 |
| 20260507060525 | 16 | 248 | 6.4 | 25.7 | 0.00 | 0.00 | 0.00 | 34 | 1014.7 |
| 20260507060030 | 16 | 215 | 9.7 | 20.9 | 0.00 | 0.00 | 0.00 | 32 | 1014.7 |
| 20260507055525 | 16 | 263 | 8.0 | 27.4 | 0.00 | 0.00 | 0.00 | 32 | 1014.5 |
| 20260507055029 | 16 | 319 | 12.9 | 27.4 | 0.00 | 0.00 | 0.00 | 31 | 1014.4 |
| 20260507054524 | 16 | 236 | 11.3 | 25.7 | 0.00 | 0.00 | 0.00 | 32 | 1014.3 |
| 20260507054024 | 16 | 126 | 8.0 | 30.6 | 0.00 | 0.00 | 0.00 | 32 | 1014.2 |
| 20260507053526 | 16 | 266 | 14.5 | 30.6 | 0.00 | 0.00 | 0.00 | 31 | 1014.2 |
| 20260507053024 | 16 | 259 | 9.7 | 24.1 | 0.00 | 0.00 | 0.00 | 32 | 1014.1 |
| 20260507052523 | 17 | 223 | 9.7 | 24.1 | 0.00 | 0.00 | 0.00 | 32 | 1014.0 |
| 20260507052023 | 17 | 159 | 9.7 | 25.7 | 0.00 | 0.00 | 0.00 | 32 | 1014.0 |
| 20260507051523 | 17 | 211 | 9.7 | 29.0 | 0.00 | 0.00 | 0.00 | 32 | 1013.9 |
| 20260507051022 | 17 | 221 | 9.7 | 35.4 | 0.00 | 0.00 | 0.00 | 31 | 1014.0 |
| 20260507050524 | 17 | 184 | 9.7 | 35.4 | 0.00 | 0.00 | 0.00 | 30 | 1013.8 |
| 20260507050030 | 17 | 162 | 12.9 | 35.4 | 0.00 | 0.00 | 0.00 | 31 | 1013.7 |
| 20260507045524 | 17 | 260 | 12.9 | 35.4 | 0.00 | 0.00 | 0.00 | 30 | 1013.6 |
| 20260507045023 | 17 | 270 | 9.7 | 37.0 | 0.00 | 0.00 | 0.00 | 31 | 1013.6 |
| 20260507044538 | 17 | 290 | 16.1 | 40.2 | 0.00 | 0.00 | 0.00 | 31 | 1013.3 |
| 20260507044020 | 17 | 260 | 12.9 | 40.2 | 0.00 | 0.00 | 0.00 | 33 | 1013.3 |
| 20260507043519 | 17 | 224 | 11.3 | 29.0 | 0.00 | 0.00 | 0.00 | 33 | 1013.3 |
| 20260507043019 | 17 | 211 | 9.7 | 33.8 | 0.00 | 0.00 | 0.00 | 33 | 1013.3 |
| 20260507042520 | 17 | 193 | 11.3 | 33.8 | 0.00 | 0.00 | 0.00 | 32 | 1013.2 |
| 20260507042018 | 17 | 277 | 12.9 | 37.0 | 0.00 | 0.00 | 0.00 | 32 | 1013.0 |
| 20260507041517 | 17 | 210 | 12.9 | 38.6 | 0.00 | 0.00 | 0.00 | 32 | 1012.8 |
| 20260507041016 | 17 | 246 | 14.5 | 41.8 | 0.00 | 0.00 | 0.00 | 32 | 1012.9 |
| 20260507040515 | 17 | 263 | 12.9 | 25.7 | 0.00 | 0.00 | 0.00 | 35 | 1012.7 |
| 20260507040014 | 17 | 163 | 9.7 | 32.2 | 0.00 | 0.00 | 0.00 | 38 | 1012.7 |
| 20260507035512 | 18 | 79 | 11.3 | 29.0 | 0.00 | 0.00 | 0.00 | 39 | 1012.7 |
| 20260507035012 | 18 | 236 | 12.9 | 27.4 | 0.00 | 0.00 | 0.00 | 39 | 1012.5 |
| 20260507034511 | 18 | 229 | 11.3 | 33.8 | 0.00 | 0.00 | 0.00 | 37 | 1012.5 |
| 20260507034009 | 18 | 252 | 17.7 | 35.4 | 0.00 | 0.00 | 0.00 | 37 | 1012.4 |
| 20260507033508 | 18 | 246 | 14.5 | 35.4 | 0.00 | 0.00 | 0.00 | 40 | 1012.3 |
| 20260507033009 | 18 | 189 | 12.9 | 27.4 | 0.00 | 0.00 | 0.00 | 47 | 1012.4 |
| 20260507032505 | 18 | 238 | 8.0 | 22.5 | 0.00 | 0.00 | 0.00 | 52 | 1012.3 |
| 20260507032006 | 17 | 222 | 4.8 | 22.5 | 0.00 | 0.00 | 0.00 | 54 | 1012.3 |
| 20260507031504 | 17 | 196 | 8.0 | 27.4 | 0.00 | 0.00 | 0.00 | 53 | 1012.4 |
| 20260507031003 | 17 | 203 | 11.3 | 32.2 | 0.00 | 0.00 | 0.00 | 53 | 1012.4 |
| 20260507030502 | 17 | 236 | 12.9 | 27.4 | 0.00 | 0.00 | 0.00 | 54 | 1012.2 |
| 20260507030000 | 17 | 229 | 4.8 | 12.9 | 0.00 | 0.00 | 0.00 | 57 | 1012.3 |
| 20260507025559 | 17 | 244 | 6.4 | 14.5 | 0.00 | 0.00 | 0.00 | 58 | 1012.3 |
| 20260507025102 | 17 | 271 | 6.4 | 17.7 | 0.00 | 0.00 | 0.00 | 59 | 1012.2 |
| 20260507024617 | 17 | 292 | 8.0 | 17.7 | 0.00 | 0.00 | 0.00 | 60 | 1012.2 |
| 20260507024102 | 17 | 241 | 8.0 | 22.5 | 0.00 | 0.00 | 0.00 | 60 | 1012.3 |
| 20260507023601 | 17 | 284 | 12.9 | 22.5 | 0.00 | 0.00 | 0.00 | 59 | 1012.4 |
| 20260507023058 | 17 | 320 | 11.3 | 24.1 | 0.00 | 0.00 | 0.00 | 60 | 1012.4 |
| 20260507022558 | 17 | 240 | 14.5 | 25.7 | 0.00 | 0.00 | 0.00 | 59 | 1012.7 |
| 20260507022058 | 17 | 260 | 11.3 | 25.7 | 0.00 | 0.00 | 0.00 | 60 | 1012.6 |
| 20260507021616 | 17 | 288 | 12.9 | 25.7 | 0.00 | 0.00 | 0.00 | 60 | 1012.7 |
| 20260507021055 | 17 | 317 | 11.3 | 24.1 | 0.00 | 0.00 | 0.00 | 61 | 1012.8 |
| 20260507020554 | 17 | 233 | 8.0 | 17.7 | 0.00 | 0.00 | 0.00 | 62 | 1012.9 |
| 20260507020104 | 17 | 252 | 9.7 | 24.1 | 0.00 | 0.00 | 0.00 | 62 | 1013.0 |
| 20260507015555 | 16 | 279 | 8.0 | 24.1 | 0.00 | 0.00 | 0.00 | 61 | 1013.2 |
| 20260507015056 | 16 | 270 | 6.4 | 16.1 | 0.00 | 0.00 | 0.00 | 63 | 1013.3 |
| 20260507014611 | 16 | 242 | 6.4 | 17.7 | 0.00 | 0.00 | 0.00 | 63 | 1013.4 |
| 20260507014053 | 16 | 329 | 6.4 | 24.1 | 0.00 | 0.00 | 0.00 | 63 | 1013.4 |
| 20260507013552 | 16 | 238 | 12.9 | 25.7 | 0.00 | 0.00 | 0.00 | 63 | 1013.6 |
| 20260507013055 | 16 | 297 | 14.5 | 25.7 | 0.00 | 0.00 | 0.00 | 63 | 1013.7 |
| 20260507012554 | 16 | 280 | 12.9 | 29.0 | 0.00 | 0.00 | 0.00 | 63 | 1013.8 |
| 20260507012052 | 16 | 281 | 14.5 | 29.0 | 0.00 | 0.00 | 0.00 | 62 | 1013.8 |
| 20260507011552 | 16 | 244 | 9.7 | 35.4 | 0.00 | 0.00 | 0.00 | 62 | 1013.9 |
| 20260507011050 | 17 | 250 | 14.5 | 27.4 | 0.00 | 0.00 | 0.00 | 61 | 1013.8 |
| 20260507010555 | 17 | 279 | 12.9 | 29.0 | 0.00 | 0.00 | 0.00 | 60 | 1013.9 |
| 20260507005549 | 16 | 244 | 11.3 | 30.6 | 0.00 | 0.00 | 0.00 | 62 | 1014.0 |
| 20260507005047 | 16 | 254 | 14.5 | 29.0 | 0.00 | 0.00 | 0.00 | 61 | 1014.0 |
| 20260507004548 | 16 | 238 | 16.1 | 32.2 | 0.00 | 0.00 | 0.00 | 62 | 1014.0 |
| 20260507004047 | 16 | 265 | 12.9 | 32.2 | 0.00 | 0.00 | 0.00 | 62 | 1014.0 |
| 20260507003546 | 16 | 228 | 12.9 | 27.4 | 0.00 | 0.00 | 0.00 | 62 | 1014.0 |
| 20260507003044 | 16 | 268 | 9.7 | 25.7 | 0.00 | 0.00 | 0.00 | 64 | 1014.0 |
| 20260507002544 | 16 | 224 | 11.3 | 27.4 | 0.00 | 0.00 | 0.00 | 63 | 1014.2 |
| 20260507002045 | 16 | 223 | 16.1 | 30.6 | 0.00 | 0.00 | 0.00 | 63 | 1014.2 |
| 20260507001548 | 16 | 298 | 14.5 | 30.6 | 0.00 | 0.00 | 0.00 | 63 | 1014.2 |
| 20260507001043 | 16 | 248 | 16.1 | 25.7 | 0.00 | 0.00 | 0.00 | 63 | 1014.2 |
| 20260507000543 | 16 | 264 | 8.0 | 29.0 | 0.00 | 0.00 | 0.00 | 65 | 1014.3 |
| 20260507000044 | 16 | 251 | 12.9 | 29.0 | 0.00 | 0.00 | 0.00 | 65 | 1014.3 |
| 20260506235542 | 15 | 237 | 9.7 | 22.5 | 0.00 | 0.00 | 0.00 | 65 | 1014.3 |
| 20260506235040 | 15 | 240 | 8.0 | 25.7 | 0.00 | 0.00 | 0.00 | 66 | 1014.4 |
| 20260506234541 | 15 | 247 | 12.9 | 25.7 | 0.00 | 0.00 | 0.00 | 65 | 1014.5 |
| 20260506234041 | 15 | 293 | 9.7 | 22.5 | 0.00 | 0.00 | 0.00 | 67 | 1014.5 |
| 20260506233540 | 15 | 244 | 12.9 | 22.5 | 0.00 | 0.00 | 0.00 | 66 | 1014.3 |
| 20260506233040 | 15 | 246 | 8.0 | 17.7 | 0.00 | 0.00 | 0.00 | 68 | 1014.4 |
| 20260506232539 | 15 | 244 | 8.0 | 22.5 | 0.00 | 0.00 | 0.00 | 67 | 1014.4 |
| 20260506232040 | 15 | 244 | 11.3 | 22.5 | 0.00 | 0.00 | 0.00 | 66 | 1014.4 |
| 20260506231539 | 15 | 288 | 9.7 | 24.1 | 0.00 | 0.00 | 0.00 | 67 | 1014.5 |
| 20260506231042 | 15 | 244 | 9.7 | 24.1 | 0.00 | 0.00 | 0.00 | 67 | 1014.5 |
| 20260506230539 | 15 | 257 | 9.7 | 29.0 | 0.00 | 0.00 | 0.00 | 67 | 1014.5 |
| 20260506230037 | 15 | 213 | 14.5 | 29.0 | 0.00 | 0.00 | 0.00 | 67 | 1014.4 |
| 20260506225538 | 15 | 234 | 12.9 | 25.7 | 0.00 | 0.00 | 0.00 | 68 | 1014.4 |
| 20260506225036 | 15 | 280 | 8.0 | 24.1 | 0.00 | 0.00 | 0.00 | 69 | 1014.4 |
| 20260506224537 | 15 | 251 | 11.3 | 24.1 | 0.00 | 0.00 | 0.00 | 70 | 1014.3 |
| 20260506224035 | 14 | 255 | 12.9 | 20.9 | 0.00 | 0.00 | 0.00 | 71 | 1014.4 |
| 20260506223535 | 14 | 243 | 9.7 | 22.5 | 0.00 | 0.00 | 0.00 | 71 | 1014.4 |
| 20260506223037 | 14 | 259 | 11.3 | 22.5 | 0.00 | 0.00 | 0.00 | 72 | 1014.4 |
| 20260506222535 | 14 | 239 | 4.8 | 19.3 | 0.00 | 0.00 | 0.00 | 73 | 1014.4 |
| 20260506222035 | 14 | 271 | 6.4 | 19.3 | 0.00 | 0.00 | 0.00 | 74 | 1014.4 |
| 20260506221534 | 13 | 232 | 6.4 | 22.5 | 0.00 | 0.00 | 0.00 | 74 | 1014.4 |
| 20260506221034 | 13 | 262 | 8.0 | 24.1 | 0.00 | 0.00 | 0.00 | 75 | 1014.3 |
| 20260506220532 | 13 | 247 | 9.7 | 24.1 | 0.00 | 0.00 | 0.00 | 76 | 1014.4 |
| 20260506220036 | 13 | 262 | 11.3 | 22.5 | 0.00 | 0.00 | 0.00 | 77 | 1014.3 |
| 20260506215529 | 13 | 234 | 9.7 | 22.5 | 0.00 | 0.00 | 0.00 | 77 | 1014.2 |
| 20260506215029 | 13 | 296 | 9.7 | 19.3 | 0.00 | 0.00 | 0.00 | 78 | 1014.2 |
| 20260506214528 | 13 | 227 | 6.4 | 22.5 | 0.00 | 0.00 | 0.00 | 79 | 1014.1 |
| 20260506214028 | 13 | 229 | 9.7 | 22.5 | 0.00 | 0.00 | 0.00 | 78 | 1014.1 |
| 20260506213526 | 13 | 233 | 9.7 | 19.3 | 0.00 | 0.00 | 0.00 | 79 | 1014.1 |
| 20260506213026 | 13 | 230 | 8.0 | 24.1 | 0.00 | 0.00 | 0.00 | 79 | 1013.9 |
| 20260506212525 | 13 | 360 | 12.9 | 25.7 | 0.00 | 0.00 | 0.00 | 79 | 1013.8 |
| 20260506212024 | 13 | 230 | 14.5 | 25.7 | 0.00 | 0.00 | 0.00 | 81 | 1013.7 |
| 20260506211522 | 13 | 221 | 11.3 | 20.9 | 0.00 | 0.00 | 0.00 | 82 | 1013.6 |
| 20260506211020 | 13 | 239 | 8.0 | 22.5 | 0.00 | 0.00 | 0.00 | 84 | 1013.6 |
| 20260506210522 | 12 | 275 | 12.9 | 22.5 | 0.00 | 0.00 | 0.00 | 86 | 1013.5 |
| 20260506210019 | 12 | 263 | 9.7 | 17.7 | 0.00 | 0.00 | 0.00 | 86 | 1013.6 |
| 20260506205516 | 12 | 294 | 4.8 | 11.3 | 0.00 | 0.00 | 0.00 | 86 | 1013.6 |
| 20260506205014 | 12 | 281 | 3.2 | 9.7 | 0.00 | 0.00 | 0.00 | 86 | 1013.6 |
| 20260506204512 | 12 | 284 | 3.2 | 9.7 | 0.00 | 0.00 | 0.00 | 86 | 1013.5 |
| 20260506204010 | 12 | 273 | 4.8 | 14.5 | 0.00 | 0.00 | 0.00 | 86 | 1013.4 |
| 20260506203510 | 12 | 294 | 6.4 | 16.1 | 0.00 | 0.00 | 0.00 | 86 | 1013.3 |
| 20260506203010 | 12 | 264 | 6.4 | 16.1 | 0.00 | 0.00 | 0.00 | 86 | 1013.2 |
| 20260506202511 | 12 | 287 | 3.2 | 14.5 | 0.00 | 0.00 | 0.00 | 87 | 1013.0 |
| 20260506202007 | 12 | 302 | 4.8 | 14.5 | 0.00 | 0.00 | 0.00 | 87 | 1012.9 |
| 20260506201509 | 12 | 257 | 4.8 | 14.5 | 0.00 | 0.00 | 0.00 | 88 | 1013.1 |
| 20260506201006 | 12 | 263 | 4.8 | 16.1 | 0.00 | 0.00 | 0.00 | 89 | 1013.1 |
| 20260506200505 | 11 | 239 | 4.8 | 16.1 | 0.00 | 0.00 | 0.00 | 89 | 1012.9 |
| 20260506200008 | 11 | 294 | 0.0 | 4.8 | 0.00 | 0.00 | 0.00 | 89 | 1012.8 |
| 20260506195504 | 11 | 45 | 0.0 | 3.2 | 0.00 | 0.00 | 0.00 | 88 | 1012.7 |
| 20260506195003 | 12 | 45 | 1.6 | 6.4 | 0.00 | 0.00 | 0.00 | 88 | 1012.7 |
| 20260506194502 | 12 | 323 | 0.0 | 6.4 | 0.00 | 0.00 | 0.00 | 88 | 1012.6 |
| 20260506194001 | 12 | 299 | 0.0 | 11.3 | 0.00 | 0.00 | 0.00 | 88 | 1012.7 |
| 20260506193501 | 12 | 306 | 3.2 | 11.3 | 0.00 | 0.00 | 0.00 | 88 | 1012.6 |
| 20260506193002 | 12 | 289 | 3.2 | 11.3 | 0.00 | 0.00 | 0.00 | 88 | 1012.5 |
| 20260506192600 | 12 | 273 | 4.8 | 11.3 | 0.00 | 0.00 | 0.00 | 89 | 1012.4 |
| 20260506192100 | 12 | 277 | 4.8 | 12.9 | 0.00 | 0.00 | 0.00 | 89 | 1012.3 |
| 20260506191600 | 12 | 296 | 4.8 | 12.9 | 0.00 | 0.00 | 0.00 | 89 | 1012.4 |
| 20260506191058 | 12 | 252 | 3.2 | 12.9 | 0.00 | 0.00 | 0.00 | 89 | 1012.2 |
| 20260506190559 | 12 | 265 | 3.2 | 12.9 | 0.00 | 0.00 | 0.00 | 89 | 1012.3 |
| 20260506190057 | 12 | 273 | 6.4 | 12.9 | 0.00 | 0.00 | 0.00 | 90 | 1012.4 |
| 20260506185555 | 12 | 271 | 3.2 | 14.5 | 0.00 | 0.00 | 0.00 | 90 | 1012.4 |
| 20260506185055 | 12 | 293 | 6.4 | 16.1 | 0.00 | 0.00 | 0.00 | 90 | 1012.5 |
| 20260506184558 | 12 | 281 | 8.0 | 16.1 | 0.00 | 0.00 | 0.00 | 90 | 1012.6 |
| 20260506184055 | 13 | 290 | 8.0 | 16.1 | 0.00 | 0.00 | 0.00 | 90 | 1012.5 |
| 20260506183555 | 13 | 253 | 6.4 | 14.5 | 0.00 | 0.00 | 0.00 | 91 | 1012.5 |
| 20260506183053 | 13 | 284 | 3.2 | 14.5 | 0.00 | 0.00 | 0.00 | 91 | 1012.5 |
| 20260506182554 | 13 | 295 | 4.8 | 14.5 | 0.00 | 0.00 | 0.00 | 92 | 1012.5 |
| 20260506182049 | 13 | 277 | 4.8 | 14.5 | 0.00 | 0.00 | 0.00 | 92 | 1012.5 |
| 20260506181549 | 13 | 275 | 6.4 | 14.5 | 0.00 | 0.00 | 0.00 | 92 | 1012.5 |
| 20260506181046 | 13 | 250 | 4.8 | 17.7 | 0.00 | 0.00 | 0.00 | 92 | 1012.5 |
| 20260506180545 | 14 | 265 | 8.0 | 17.7 | 0.00 | 0.00 | 0.00 | 92 | 1012.5 |
| 20260506180045 | 14 | 246 | 9.7 | 17.7 | 0.00 | 0.00 | 0.00 | 92 | 1012.4 |
| 20260506175544 | 14 | 271 | 11.3 | 17.7 | 0.00 | 0.00 | 0.00 | 93 | 1012.4 |
| 20260506175042 | 14 | 268 | 8.0 | 16.1 | 0.00 | 0.00 | 0.00 | 92 | 1012.4 |
| 20260506174542 | 14 | 302 | 8.0 | 16.1 | 0.00 | 0.00 | 0.00 | 92 | 1012.4 |
| 20260506174043 | 15 | 259 | 8.0 | 17.7 | 0.00 | 0.00 | 0.00 | 92 | 1012.4 |
| 20260506173542 | 15 | 248 | 8.0 | 17.7 | 0.00 | 0.00 | 0.00 | 92 | 1012.3 |
| 20260506173048 | 15 | 259 | 9.7 | 16.1 | 0.00 | 0.00 | 0.00 | 92 | 1012.4 |
| 20260506172537 | 15 | 290 | 8.0 | 16.1 | 0.00 | 0.00 | 0.00 | 91 | 1012.4 |
| 20260506172036 | 15 | 286 | 8.0 | 16.1 | 0.00 | 0.00 | 0.00 | 91 | 1012.4 |
| 20260506171549 | 15 | 252 | 9.7 | 16.1 | 0.00 | 0.00 | 0.00 | 91 | 1012.4 |
| 20260506171035 | 15 | 284 | 8.0 | 16.1 | 0.00 | 0.00 | 0.00 | 91 | 1012.4 |
| 20260506170533 | 15 | 257 | 6.4 | 19.3 | 0.00 | 0.00 | 0.00 | 91 | 1012.5 |